Погода в Коста-Тегисе

Испания     28°59′50″N   13°30′00″W
темп.,
°C
ветер,
м/с
пор.,
м/с
влажн.,
%
обл.,
%
осадки,
мм/ч
давл.,
гПа
погр.,
м
21 января, чт
чт2100:00+16зсз11740 0.0 1025190
03:00+16с11810 0.0 1023212
06:00+16юз22820 0.0 1024134
09:00+17з11790 0.0 102596
12:00+19с11721 0.0 1026381
15:00+20ссв34742 0.0 1024522
18:00+19с33771 0.0 1025308
21:00+19ссз22830 0.0 102699
22 января, пт
пт2200:00+18с34850 0.0 1026216
03:00+17ссв45870 0.0 1025248
06:00+17ссв46900 0.0 1024271
09:00+18ссв34908 0.0 1026269
12:00+19ссв56805 0.0 1026466
15:00+20ссв567934 0.0 1025529
18:00+19ссв688647 0.0 1025503
21:00+18ссв689172 0.0 1026425
23 января, сб
сб2300:00+18ссв579386 0.0 1026400
03:00+18ссв569379 0.0 1024400
06:00+17ссв678979 0.1 1023389
09:00+17ссв688788 0.0 1025479
12:00+18св787892 0.0 1024553
15:00+19ссв787354 0.0 1023572
18:00+18ссв687768 0.0 1022483
21:00+17ссв6876100 0.0 1024452
24 января, вс
вс2400:00+17ссв577894 0.0 1023399
03:00+17ссв677992 0.0 1022364
06:00+17ссв678195 0.0 1021345
09:00+17ссв578076 0.0 1022457
12:00+18св567185 0.0 1022466
15:00+19ссв67710 0.0 1021516
18:00+18ссв67790 0.0 1020471
21:00+18ссв57850 0.0 1022450
25 января, пн
пн2500:00+17ссв58903 0.0 1022437
03:00+17ссв589115 0.0 1022385
06:00+17ссв798917 0.0 1021478
09:00+17ссв688718 0.0 1023553
12:00+19ссв797813 0.0 1023665
15:00+19ссв8107813 0.0 1022727
18:00+18ссв911837 0.0 1022633
21:00+18ссв811830 0.0 1024554